Regional Weather Roundup
Issued by NWS

Home | Current Version | Previous Version | Graphics & Text | Print | Product List | Glossary On
Versions: 1 2 3 4 5 6 7 8 9 10 11 12 13 14 15 16 17 18 19 20 21 22 23 24 25 26 27 28 29 30 31 32 33 34 35 36 37 38 39 40 41 42 43 44 45 46 47 48 49 50
718
ASUS44 KLIX 011101
RWRLA
LOUISIANA WEATHER ROUNDUP
NATIONAL WEATHER SERVICE NEW ORLEANS LA
600 AM CDT MON SEP 01 2014

NOTE: "FAIR" INDICATES FEW OR NO CLOUDS BELOW 12,000 FEET WITH NO
      SIGNIFICANT WEATHER AND/OR OBSTRUCTIONS TO VISIBILITY.
      SKY/WX - SKY CONDITION AND SIGNIFICANT WEATHER.
      TMP - AIR TEMPERATURE.    DP   - DEWPOINT TEMPERATURE.
      RH  - RELATIVE HUMIDITY.  PRES - PRESSURE.
      HX  - HEAT INDEX.         WCI  - WIND CHILL INDEX.

*  THESE STATIONS ARE NOT NWS OR FAA STATIONS AND ARE NOT UNDER
   NWS QUALITY CONTROL.

LAZ040-048-061>063-065-066-069-011200-
SOUTHEAST LOUISIANA

CITY           SKY/WX    TMP DP  RH WIND       PRES   REMARKS
N.O. AUDUBON     N/A     81  79  94 MISG        N/A
N.O. INTL ARPT MOCLDY    80  76  87 CALM      30.02R
N.O. LAKEFRONT PTCLDY    81  77  88 SE6       30.02R
N.O. DOWNTOWN* FAIR      82  73  74 CALM      30.03R
SLIDELL        CLEAR     76  73  91 CALM      30.02R
BATON ROUGE    PTCLDY    75  73  93 CALM      30.01S
BOOTHVILLE     PTCLDY    82  78  88 SE5       30.02R
BELLE CHASSE   PTCLDY    81  75  82 SE6       30.01R
BOGALUSA*        N/A     73  70  90 CALM      30.05R
GALLIANO*      NOT AVBL
NEW ROADS*     FAIR      75  75  98 CALM      30.02R FOG
GONZALES*      FAIR      75  75 100 CALM      30.01R FOG
HAMMOND*       NOT AVBL
HOUMA*         PTCLDY    75  72  88 E5        30.01R
PORT FOURCHON* NOT AVBL

$$

LAZ041-044-053-054-011200-
SOUTHWEST LOUISIANA

CITY           SKY/WX    TMP DP  RH WIND       PRES   REMARKS
LAKE CHARLES   CLEAR     76  74  93 E3        29.97R
LAFAYETTE      CLOUDY    76  75  97 E3        30.00R FOG
PATTERSON        N/A     75  75 100 E5        30.03R
SALT POINT       N/A     82  78  88 CALM      29.99R
NEW IBERIA     PTCLDY    77  76  96 E5        30.00R
CHENAULT AIRPK NOT AVBL

$$

LAZ027-028-011200-
CENTRAL LOUISIANA

CITY           SKY/WX    TMP DP  RH WIND       PRES   REMARKS
FORT POLK      CLOUDY    77  76  96 SE7       29.98F FOG
ALEXANDRIA INT MOCLDY    75  74  96 SE7       29.97F
ALEXANDRIA     CLOUDY    73  71  93 CALM      30.00S

$$

LAZ001-002-011200-
NORTHWEST LOUISIANA

CITY           SKY/WX    TMP DP  RH WIND       PRES   REMARKS
SHREVEPORT     CLOUDY    76  74  93 S6        29.97S
BARKSDALE AFB  CLOUDY    74  74 100 SE5       29.98R
DTN SHREVEPORT CLOUDY    76  73  91 S3        29.97S

$$

LAZ014-016-011200-
NORTHEAST LOUISIANA

CITY           SKY/WX    TMP DP  RH WIND       PRES   REMARKS
MONROE         PTCLDY    72  71  97 CALM      30.01S
TALLULAH       MOCLDY    76  74  93 S8        30.02S

$$




USA.gov is the U.S. government's official web portal to all federal, state and local government web resources and services.